QPF
0.00 0.00 0.00 0.00 0.00 0.00 0.00 0.00 0.00 0.00 0.00 0.00 0.00 0.00 0.00 0.00 0.00 0.00 0.00 0.00 0.00 0.00 0.00 0.00 0.00 0.00 0.00 0.00 0.00 0.00 0.00 0.00 0.00 0.00 0.00 0.00 0.00 0.00 0.00 0.00 0.00 0.00 0.00 0.00 0.00
0.00 0.00 0.00 0.00 0.00 0.00 0.00 0.00 0.00 0.00 0.00 0.00 0.00 0.00 0.00 0.00 0.00 0.00 0.00 0.00 0.00 0.00 0.00 0.00 0.00 0.00 0.00 0.00 0.00 0.00 0.00 0.00 0.00 0.00 0.00 0.00 0.00 0.00 0.00 0.00 0.00 0.00 0.00 0.00 0.00
0.00 0.00 0.00 0.00 0.00 0.00 0.00 0.00 0.00 0.00 0.00 0.00 0.00 0.00 0.00 0.00 0.00 0.00 0.00 0.00 0.00 0.00 0.00 0.00 0.00 0.00 0.00 0.00 0.00 0.00 0.00 0.00 0.00 0.00 0.00 0.00 0.00 0.00 0.00 0.00 0.00 0.00 0.00 0.00 0.00
0.00 0.00 0.00 0.00 0.00 0.00 0.00 0.00 0.00 0.00 0.00 0.00 0.00 0.00 0.00 0.00 0.00 0.00 0.00 0.00 0.00 0.00 0.00 0.00 0.00 0.00 0.00 0.00 0.00 0.00 0.00 0.00 0.00 0.00 0.00 0.00 0.00 0.00 0.00 0.00 0.00 0.00 0.00 0.00 0.00
0.00 0.00 0.00 0.00 0.00 0.00 0.00 0.00 0.00 0.00 0.00 0.00 0.00 0.00 0.00 0.00 0.00 0.00 0.00 0.00 0.00 0.00 0.00 0.00 0.00 0.00 0.00 0.00 0.00 0.00 0.00 0.00 0.00 0.00 0.00 0.00 0.00 0.00 0.00 0.00 0.00 0.00 0.00 0.00 0.00
0.00 0.00 0.00 0.00 0.00 0.00 0.00 0.00 0.00 0.00 0.00 0.00 0.00 0.00 0.00 0.00 0.00 0.00 0.00 0.00 0.00 0.00 0.00 0.00 0.00 0.00 0.00 0.00 0.00 0.00 0.00 0.00 0.00 0.00 0.00 0.00 0.00 0.00 0.00 0.00 0.00 0.00 0.00 0.00 0.00
0.00 0.00 0.00 0.00 0.00 0.00 0.00 0.00 0.00 0.00 0.00 0.00 0.00 0.00 0.00 0.00 0.00 0.00 0.00 0.00 0.00 0.00 0.00 0.00 0.00 0.00 0.00 0.00 0.00 0.00 0.00 0.00 0.00 0.00 0.00 0.00 0.00 0.00 0.00 0.00 0.00 0.00 0.00 0.00 0.00
0.00 0.00 0.00 0.00 0.00 0.00 0.00 0.00 0.00 0.00 0.00 0.00 0.00 0.00 0.00 0.00 0.00 0.00 0.00 0.00 0.00 0.00 0.00 0.00 0.00 0.00 0.00 0.00 0.00 0.00 0.00 0.00 0.00 0.00 0.00 0.00 0.00 0.00 0.00 0.00 0.00 0.00 0.00 0.00 0.00
0.00 0.00 0.00 0.00 0.00 0.00 0.00 0.00 0.00 0.00 0.00 0.00 0.00 0.00 0.00 0.00 0.00 0.00 0.00 0.00 0.00 0.00 0.00 0.00 0.00 0.00 0.00 0.00 0.00 0.00 0.00 0.00 0.00 0.00 0.00 0.00 0.00 0.00 0.00 0.00 0.00 0.00 0.00 0.00 0.00
0.00 0.00 0.00 0.00 0.00 0.00 0.00 0.00 0.00 0.00 0.00 0.00 0.00 0.00 0.00 0.00 0.00 0.00 0.00 0.00 0.00 0.00 0.00 0.00 0.00 0.00 0.00 0.00 0.00 0.00 0.00 0.00 0.00 0.00 0.00 0.00 0.00 0.00 0.00 0.00 0.00 0.00 0.00 0.00 0.00
0.00 0.00 0.00 0.00 0.00 0.00 0.00 0.00 0.00 0.00 0.00 0.00 0.00 0.00 0.00 0.00 0.00 0.00 0.00 0.00 0.00 0.00 0.00 0.00 0.00 0.00 0.00 0.00 0.00 0.00 0.00 0.00 0.00 0.00 0.00 0.00 0.00 0.00 0.00 0.00 0.00 0.00 0.00 0.00 0.00
0.01 0.01 0.00 0.00 0.00 0.00 0.00 0.00 0.00 0.00 0.00 0.00 0.00 0.00 0.00 0.00 0.00 0.00 0.00 0.00 0.00 0.00 0.00 0.00 0.00 0.00 0.00 0.00 0.00 0.00 0.00 0.00 0.00 0.00 0.00 0.00 0.00 0.00 0.00 0.00 0.00 0.00 0.00 0.00 0.00
0.01 0.02 0.02 0.00 0.00 0.00 0.00 0.00 0.00 0.00 0.00 0.00 0.00 0.00 0.00 0.00 0.00 0.00 0.00 0.00 0.00 0.00 0.00 0.00 0.00 0.00 0.00 0.00 0.00 0.00 0.00 0.00 0.00 0.00 0.00 0.00 0.00 0.00 0.00 0.00 0.00 0.00 0.00 0.00 0.00
0.01 0.03 0.03 0.01 0.01 0.00 0.00 0.00 0.00 0.00 0.00 0.00 0.00 0.00 0.00 0.00 0.00 0.00 0.00 0.00 0.00 0.00 0.00 0.00 0.00 0.00 0.00 0.00 0.00 0.00 0.00 0.00 0.00 0.00 0.00 0.00 0.00 0.00 0.00 0.00 0.00 0.00 0.00 0.00 0.00
0.00 0.02 0.05 0.02 0.00 0.00 0.00 0.00 0.00 0.00 0.00 0.00 0.00 0.00 0.00 0.00 0.00 0.00 0.00 0.00 0.00 0.00 0.00 0.00 0.00 0.00 0.00 0.00 0.00 0.00 0.00 0.00 0.00 0.00 0.00 0.00 0.00 0.00 0.00 0.00 0.00 0.00 0.00 0.00 0.00
0.00 0.00 0.05 0.05 0.01 0.00 0.00 0.00 0.00 0.00 0.00 0.00 0.00 0.00 0.00 0.00 0.00 0.00 0.00 0.00 0.00 0.00 0.00 0.00 0.00 0.00 0.00 0.00 0.00 0.00 0.00 0.00 0.00 0.00 0.00 0.00 0.00 0.00 0.00 0.00 0.00 0.00 0.00 0.00 0.00
0.00 0.00 0.01 0.02 0.00 0.01 0.00 0.01 0.00 0.00 0.00 0.00 0.00 0.00 0.00 0.00 0.00 0.00 0.00 0.00 0.00 0.00 0.00 0.00 0.00 0.00 0.00 0.00 0.00 0.00 0.00 0.00 0.00 0.00 0.00 0.00 0.00 0.00 0.00 0.00 0.00 0.00 0.00 0.00 0.00
0.00 0.00 0.01 0.00 0.00 0.02 0.01 0.01 0.00 0.00 0.00 0.00 0.00 0.00 0.00 0.00 0.00 0.00 0.00 0.00 0.00 0.00 0.00 0.00 0.00 0.00 0.00 0.00 0.00 0.00 0.00 0.00 0.00 0.00 0.00 0.00 0.00 0.00 0.00 0.00 0.00 0.00 0.00 0.00 0.00
0.00 0.00 0.00 0.00 0.00 0.02 0.01 0.00 0.00 0.00 0.00 0.00 0.00 0.00 0.00 0.00 0.00 0.00 0.00 0.00 0.00 0.00 0.00 0.00 0.00 0.00 0.00 0.00 0.00 0.00 0.00 0.00 0.00 0.00 0.00 0.00 0.00 0.00 0.00 0.00 0.00 0.00 0.00 0.00 0.00
0.00 0.01 0.00 0.00 0.00 0.03 0.03 0.00 0.00 0.00 0.00 0.00 0.00 0.00 0.00 0.00 0.00 0.00 0.00 0.00 0.00 0.00 0.00 0.00 0.00 0.00 0.00 0.00 0.00 0.00 0.00 0.00 0.00 0.00 0.00 0.00 0.00 0.00 0.00 0.00 0.00 0.00 0.00 0.00 0.00
0.00 0.01 0.00 0.00 0.02 0.03 0.01 0.00 0.00 0.00 0.00 0.00 0.00 0.00 0.00 0.00 0.00 0.00 0.00 0.00 0.00 0.00 0.00 0.00 0.00 0.00 0.00 0.00 0.00 0.00 0.00 0.00 0.00 0.00 0.00 0.00 0.00 0.00 0.00 0.00 0.00 0.00 0.00 0.00 0.00
0.01 0.01 0.01 0.03 0.05 0.02 0.00 0.00 0.00 0.00 0.00 0.00 0.00 0.00 0.00 0.00 0.00 0.00 0.00 0.00 0.00 0.00 0.00 0.00 0.00 0.00 0.00 0.00 0.00 0.00 0.00 0.00 0.00 0.00 0.00 0.00 0.00 0.00 0.00 0.00 0.00 0.00 0.00 0.00 0.00
0.01 0.01 0.03 0.16 0.06 0.01 0.00 0.00 0.00 0.00 0.00 0.00 0.00 0.00 0.00 0.00 0.00 0.00 0.00 0.00 0.00 0.00 0.00 0.00 0.00 0.00 0.00 0.00 0.00 0.00 0.00 0.00 0.00 0.00 0.00 0.00 0.00 0.00 0.00 0.00 0.00 0.00 0.00 0.00 0.00
0.02 0.01 0.02 0.07 0.03 0.01 0.01 0.00 0.00 0.00 0.00 0.00 0.00 0.00 0.00 0.00 0.00 0.00 0.00 0.00 0.00 0.00 0.00 0.00 0.00 0.00 0.00 0.00 0.00 0.00 0.00 0.00 0.00 0.00 0.00 0.00 0.00 0.00 0.00 0.00 0.00 0.00 0.00 0.00 0.00
0.03 0.01 0.02 0.02 0.00 0.00 0.00 0.00 0.00 0.00 0.00 0.00 0.00 0.00 0.00 0.00 0.00 0.00 0.00 0.00 0.00 0.00 0.00 0.00 0.00 0.00 0.00 0.00 0.00 0.00 0.00 0.00 0.00 0.00 0.00 0.00 0.00 0.00 0.00 0.00 0.00 0.00 0.00 0.00 0.00
0.02 0.01 0.01 0.01 0.02 0.02 0.01 0.00 0.00 0.00 0.00 0.00 0.00 0.00 0.00 0.00 0.00 0.00 0.00 0.00 0.00 0.00 0.00 0.00 0.00 0.00 0.00 0.00 0.00 0.00 0.00 0.00 0.00 0.00 0.00 0.00 0.00 0.00 0.00 0.00 0.00 0.00 0.00 0.00 0.00
0.02 0.00 0.01 0.01 0.01 0.01 0.00 0.00 0.00 0.00 0.00 0.00 0.00 0.00 0.00 0.00 0.00 0.00 0.00 0.00 0.00 0.00 0.00 0.00 0.00 0.00 0.00 0.00 0.00 0.00 0.00 0.00 0.00 0.00 0.00 0.00 0.00 0.00 0.00 0.00 0.00 0.00 0.00 0.00 0.00
MSLP
1018.95 1019.07 1019.11 1019.12 1019.24 1019.19 1019.15 1018.93 1018.74 1018.48 1018.11 1017.86 1017.63 1017.31 1016.90 1016.44 1015.68 1015.79 1015.72 1015.62 1015.43 1015.07 1014.92 1014.70 1014.32 1014.10 1014.15 1014.68 1014.90 1015.32 1016.53 1016.88 1016.29 1015.78 1015.76 1015.50 1015.55 1015.69 1016.17 1017.05 1018.19 1019.17 1019.66 1020.10 1020.26
1019.09 1019.04 1019.16 1019.16 1019.23 1019.29 1019.14 1019.05 1018.85 1018.56 1018.22 1017.95 1017.63 1017.20 1016.81 1016.56 1016.25 1015.77 1015.59 1015.37 1015.13 1015.08 1014.97 1014.88 1014.58 1014.27 1014.61 1014.92 1015.28 1015.88 1016.83 1016.59 1016.18 1015.88 1015.66 1015.63 1015.77 1016.06 1016.72 1017.81 1019.14 1020.00 1020.27 1020.38 1020.59
1019.13 1019.21 1019.09 1019.18 1019.18 1019.20 1019.23 1019.11 1018.92 1018.63 1018.31 1017.94 1017.49 1017.10 1016.71 1016.67 1016.42 1015.71 1015.32 1015.19 1015.04 1015.06 1014.96 1014.78 1014.61 1014.53 1014.86 1015.08 1015.49 1015.89 1016.37 1016.27 1016.18 1015.99 1015.71 1015.77 1016.07 1016.30 1017.05 1018.49 1019.07 1019.78 1020.59 1020.89 1021.26
1019.12 1019.22 1019.31 1019.18 1019.24 1019.23 1019.19 1019.09 1018.93 1018.64 1018.33 1017.94 1017.44 1016.90 1016.45 1016.41 1016.33 1015.50 1015.30 1015.15 1015.10 1014.99 1014.93 1014.80 1014.73 1014.84 1015.15 1015.52 1015.61 1016.05 1016.03 1016.10 1016.17 1016.08 1016.12 1016.22 1016.31 1016.76 1017.52 1018.76 1019.12 1019.66 1020.39 1021.02 1021.62
1019.06 1019.14 1019.32 1019.30 1019.18 1019.17 1019.13 1019.05 1018.93 1018.64 1018.33 1017.97 1017.48 1016.84 1016.21 1016.16 1015.57 1015.24 1015.26 1015.25 1015.19 1015.08 1015.06 1014.97 1014.92 1014.97 1015.35 1015.62 1015.85 1016.20 1016.19 1016.13 1016.30 1016.35 1016.48 1016.56 1016.85 1017.35 1018.39 1019.18 1019.63 1020.15 1020.79 1021.50 1021.86
1019.08 1019.09 1019.18 1019.30 1019.35 1019.08 1019.05 1018.99 1018.80 1018.58 1018.30 1018.03 1017.57 1016.93 1016.70 1016.20 1015.06 1015.08 1015.16 1015.35 1015.23 1015.20 1015.10 1015.08 1015.27 1015.24 1015.48 1015.74 1016.08 1016.36 1016.45 1016.44 1016.46 1016.59 1016.72 1017.06 1017.41 1017.85 1018.52 1019.25 1019.95 1020.47 1021.17 1021.71 1021.97
1018.95 1019.08 1019.13 1019.17 1019.29 1019.23 1018.99 1018.87 1018.67 1018.47 1018.27 1018.01 1017.68 1017.41 1016.80 1015.82 1015.12 1015.05 1015.23 1015.34 1015.29 1015.28 1015.28 1015.40 1015.40 1015.50 1015.77 1016.11 1016.37 1016.51 1016.85 1016.75 1016.54 1016.73 1017.06 1017.30 1017.91 1017.85 1018.29 1019.33 1020.03 1020.69 1021.23 1021.76 1022.05
1018.77 1018.86 1019.01 1019.11 1019.05 1019.13 1019.02 1018.80 1018.59 1018.35 1018.17 1017.91 1017.79 1017.56 1016.50 1015.31 1015.24 1015.33 1015.28 1015.47 1015.36 1015.34 1015.51 1015.57 1015.60 1015.95 1016.25 1016.62 1016.80 1017.07 1017.31 1017.36 1016.47 1016.72 1017.27 1017.62 1017.67 1017.55 1018.31 1019.08 1020.08 1020.70 1021.22 1021.63 1022.03
1018.54 1018.79 1018.85 1018.96 1018.90 1018.90 1018.93 1018.73 1018.45 1018.26 1017.94 1017.81 1017.74 1017.52 1016.41 1015.48 1015.42 1015.24 1015.33 1015.60 1015.69 1015.81 1015.83 1015.85 1015.97 1016.61 1017.01 1017.46 1017.94 1017.85 1017.83 1017.62 1016.98 1016.88 1017.40 1017.97 1017.96 1017.95 1018.54 1019.11 1019.90 1020.41 1021.06 1021.48 1021.97
1018.18 1018.56 1018.72 1018.68 1018.81 1018.74 1018.74 1018.56 1018.17 1018.30 1017.55 1017.67 1017.63 1017.78 1016.17 1015.56 1015.31 1015.31 1015.43 1015.64 1015.95 1016.28 1016.48 1016.53 1016.92 1017.52 1017.96 1018.26 1018.48 1018.19 1018.14 1017.55 1017.21 1017.23 1017.39 1018.09 1018.00 1018.10 1018.54 1019.00 1019.33 1019.83 1020.51 1021.07 1021.48
1017.74 1018.10 1018.40 1018.44 1018.67 1018.69 1018.72 1018.38 1018.58 1018.45 1017.81 1016.52 1016.32 1016.01 1015.70 1015.75 1015.51 1015.54 1015.55 1015.87 1016.20 1016.74 1017.13 1017.25 1017.75 1017.82 1017.58 1017.88 1017.67 1017.79 1017.90 1017.68 1017.09 1016.88 1017.47 1017.71 1017.68 1017.66 1017.91 1018.57 1018.84 1019.38 1019.70 1020.21 1020.73
1017.28 1017.59 1018.03 1018.25 1018.54 1018.66 1018.71 1018.54 1017.59 1017.57 1017.03 1015.78 1015.64 1015.54 1015.22 1015.41 1015.85 1015.82 1015.68 1016.26 1016.63 1017.06 1017.47 1017.97 1017.57 1017.03 1017.41 1017.69 1017.92 1017.86 1017.88 1017.54 1017.17 1017.05 1017.61 1017.57 1017.54 1017.11 1017.24 1017.13 1017.18 1017.64 1018.42 1019.18 1020.33
1016.58 1016.96 1017.65 1018.05 1018.40 1018.72 1018.38 1017.74 1017.18 1017.20 1017.20 1015.11 1014.34 1014.05 1014.39 1014.96 1015.16 1015.50 1015.86 1016.06 1016.49 1017.22 1017.37 1017.30 1016.62 1016.21 1017.21 1017.41 1017.75 1017.64 1017.58 1017.53 1017.68 1017.60 1017.76 1017.83 1017.28 1016.80 1015.90 1015.80 1015.89 1016.35 1016.92 1017.98 1018.95
1016.08 1016.49 1017.16 1017.94 1018.88 1017.92 1017.77 1016.80 1017.13 1017.60 1017.26 1014.54 1013.46 1012.23 1013.10 1014.05 1014.57 1014.43 1014.77 1015.30 1016.23 1016.40 1017.12 1016.97 1016.30 1016.37 1016.88 1017.00 1017.29 1017.31 1017.02 1017.26 1017.77 1018.46 1018.42 1018.08 1016.61 1015.98 1015.37 1015.23 1015.22 1015.16 1015.94 1016.94 1018.36
1015.77 1015.90 1016.43 1017.16 1016.60 1017.04 1016.28 1016.35 1017.02 1017.81 1016.99 1013.10 1012.59 1012.36 1012.56 1013.59 1013.68 1014.65 1014.64 1014.94 1015.24 1015.84 1016.41 1015.52 1015.76 1016.20 1016.45 1016.28 1016.72 1016.99 1017.04 1017.58 1018.09 1018.75 1019.03 1018.68 1018.36 1014.88 1014.69 1014.54 1014.08 1013.78 1014.91 1016.02 1017.24
1015.80 1015.55 1016.01 1016.49 1016.12 1015.61 1015.52 1016.60 1017.26 1018.00 1014.89 1012.96 1012.75 1012.79 1013.49 1013.89 1014.53 1015.09 1015.07 1015.00 1015.05 1015.52 1015.48 1015.34 1015.28 1015.47 1015.56 1016.20 1016.32 1017.10 1017.71 1018.54 1019.12 1019.69 1019.44 1018.51 1018.43 1013.84 1014.08 1012.93 1012.64 1013.12 1014.33 1015.70 1017.03
1015.58 1015.51 1015.54 1015.22 1015.05 1015.71 1015.52 1017.33 1018.05 1016.38 1012.66 1012.73 1012.96 1013.12 1013.33 1013.91 1014.88 1014.99 1015.26 1015.30 1015.01 1015.81 1015.35 1015.55 1015.32 1015.26 1015.31 1016.24 1016.68 1017.04 1018.33 1019.79 1020.60 1020.85 1018.86 1017.78 1017.53 1013.28 1012.90 1012.21 1012.17 1012.76 1013.81 1015.21 1016.47
1015.25 1014.91 1014.67 1014.52 1014.69 1015.64 1015.76 1017.15 1016.20 1014.47 1013.13 1012.32 1012.47 1013.25 1013.68 1013.87 1014.71 1015.05 1015.25 1015.43 1015.01 1014.74 1014.73 1015.04 1015.19 1014.85 1014.79 1014.88 1015.67 1016.83 1017.46 1018.68 1019.62 1020.41 1019.33 1018.40 1016.13 1012.88 1011.76 1011.54 1011.91 1012.31 1013.12 1014.67 1016.17
1014.76 1014.35 1014.11 1013.71 1014.20 1014.79 1014.67 1014.99 1013.43 1012.68 1012.22 1012.09 1012.73 1013.35 1013.68 1013.84 1014.47 1015.20 1015.14 1014.44 1013.70 1013.87 1014.04 1014.27 1014.19 1013.79 1014.11 1014.51 1014.93 1016.82 1017.12 1017.34 1018.98 1020.32 1019.87 1017.09 1014.58 1012.69 1012.12 1012.05 1012.38 1012.69 1013.51 1014.55 1015.56
1014.93 1014.14 1012.87 1012.58 1013.55 1013.92 1013.30 1012.95 1012.79 1011.55 1010.34 1011.08 1011.38 1011.87 1012.66 1013.45 1014.25 1014.61 1014.48 1012.68 1012.81 1012.55 1012.90 1013.04 1013.91 1014.41 1014.66 1014.60 1015.30 1015.56 1016.32 1017.87 1019.17 1020.08 1018.91 1016.10 1014.33 1012.25 1011.98 1011.98 1012.40 1013.16 1013.84 1014.81 1015.79
1015.00 1013.98 1011.67 1011.67 1012.90 1012.59 1010.95 1010.89 1011.11 1010.94 1010.41 1010.84 1011.20 1011.05 1011.63 1012.58 1013.16 1013.40 1012.76 1011.88 1011.56 1011.78 1012.32 1012.64 1013.38 1015.10 1015.16 1014.71 1014.51 1015.49 1015.84 1016.39 1017.13 1018.04 1017.48 1015.77 1011.75 1010.20 1010.24 1010.53 1011.58 1012.44 1013.12 1013.97 1015.13
1014.54 1013.47 1011.34 1011.64 1012.23 1011.24 1009.81 1010.00 1010.02 1010.09 1010.34 1010.09 1010.16 1010.23 1010.81 1011.45 1011.84 1012.20 1011.59 1010.65 1010.01 1010.50 1011.68 1011.74 1012.90 1014.55 1014.59 1014.28 1014.32 1013.99 1014.23 1014.78 1015.67 1016.25 1016.02 1015.00 1008.28 1009.47 1009.59 1010.18 1010.90 1011.70 1012.66 1013.59 1014.49
1013.81 1012.82 1011.25 1011.52 1011.06 1010.57 1010.18 1009.55 1009.76 1009.42 1009.45 1009.47 1009.54 1009.66 1009.89 1009.97 1011.02 1010.63 1010.28 1009.86 1009.79 1010.22 1010.47 1011.35 1012.46 1013.86 1014.29 1014.74 1014.39 1014.07 1014.00 1013.33 1013.75 1014.58 1013.34 1014.40 1007.42 1009.28 1009.24 1009.90 1010.60 1011.61 1012.50 1013.22 1014.15
1013.61 1012.79 1011.70 1011.31 1010.62 1010.16 1010.01 1009.26 1009.04 1008.97 1009.25 1008.69 1008.45 1008.94 1009.55 1009.22 1009.35 1009.37 1009.09 1009.20 1009.08 1009.21 1009.70 1010.00 1011.19 1011.26 1010.89 1011.35 1012.27 1013.41 1013.00 1013.08 1013.35 1013.07 1012.25 1010.11 1008.42 1009.21 1009.36 1010.00 1010.70 1011.40 1012.02 1012.96 1013.84
1012.61 1012.00 1010.90 1010.47 1010.43 1010.13 1010.32 1010.01 1009.20 1009.06 1008.73 1008.15 1008.38 1008.55 1008.44 1008.76 1008.79 1008.76 1008.97 1009.12 1008.89 1008.96 1009.35 1009.77 1010.66 1011.08 1010.40 1010.84 1011.26 1011.43 1011.56 1011.94 1011.85 1009.80 1011.21 1006.36 1008.51 1008.19 1008.84 1009.33 1009.69 1010.75 1011.91 1012.73 1013.40
1011.93 1011.62 1011.03 1010.47 1010.11 1009.96 1009.93 1009.51 1009.52 1009.60 1009.48 1008.27 1007.93 1008.09 1008.47 1008.05 1007.64 1007.72 1008.25 1008.55 1008.60 1009.70 1009.31 1009.78 1010.12 1010.86 1010.47 1010.72 1010.96 1011.38 1011.13 1010.27 1010.17 1009.83 1009.64 1008.50 1006.35 1007.31 1007.75 1008.47 1009.50 1009.87 1010.70 1011.44 1011.89
1011.17 1011.00 1011.18 1010.58 1010.33 1010.31 1009.55 1009.10 1008.83 1009.38 1009.07 1008.96 1008.81 1008.86 1008.10 1007.11 1007.77 1007.53 1007.73 1008.04 1008.25 1008.78 1009.19 1009.91 1010.51 1011.22 1009.91 1010.47 1011.12 1010.90 1007.60 1009.42 1009.04 1008.50 1008.30 1008.05 1003.79 1007.62 1007.81 1008.29 1008.79 1009.28 1009.67 1009.98 1010.36
Thickness
5654 5657 5660 5663 5665 5669 5671 5677 5681 5686 5693 5697 5701 5706 5712 5718 5726 5726 5726 5730 5734 5738 5742 5744 5747 5749 5749 5740 5743 5738 5697 5692 5710 5716 5714 5724 5722 5730 5731 5717 5710 5706 5703 5702 5704
5647 5651 5654 5657 5660 5663 5668 5671 5677 5682 5689 5694 5699 5705 5711 5715 5719 5723 5727 5730 5734 5737 5737 5735 5733 5741 5728 5733 5730 5714 5689 5707 5720 5717 5718 5722 5722 5719 5717 5709 5699 5694 5700 5702 5701
5640 5643 5649 5651 5655 5658 5662 5667 5672 5678 5683 5690 5697 5703 5709 5713 5713 5717 5727 5730 5733 5735 5736 5737 5737 5735 5725 5728 5724 5718 5699 5715 5714 5719 5722 5721 5719 5724 5713 5702 5702 5695 5692 5695 5692
5634 5636 5640 5646 5649 5653 5657 5662 5667 5673 5679 5686 5693 5701 5708 5711 5696 5719 5724 5727 5730 5733 5733 5732 5729 5722 5715 5711 5720 5706 5718 5716 5716 5716 5716 5714 5719 5714 5712 5701 5703 5697 5695 5691 5686
5628 5631 5633 5639 5644 5648 5652 5656 5661 5668 5674 5680 5688 5697 5706 5702 5707 5720 5722 5723 5725 5728 5724 5723 5720 5718 5708 5712 5713 5705 5710 5714 5712 5713 5712 5713 5709 5708 5698 5693 5696 5694 5690 5683 5681
5622 5625 5627 5631 5635 5643 5647 5651 5657 5662 5669 5675 5682 5691 5694 5686 5713 5717 5718 5718 5720 5720 5720 5720 5715 5718 5712 5709 5703 5705 5704 5706 5707 5706 5708 5701 5701 5706 5698 5689 5688 5688 5682 5678 5678
5614 5617 5622 5624 5628 5634 5641 5646 5651 5657 5663 5669 5675 5681 5685 5689 5707 5711 5713 5712 5716 5715 5712 5715 5716 5711 5710 5702 5705 5703 5693 5696 5699 5698 5698 5698 5688 5691 5697 5688 5685 5682 5678 5675 5675
5607 5611 5614 5618 5622 5627 5632 5639 5645 5651 5656 5662 5668 5674 5675 5698 5701 5704 5707 5705 5710 5712 5709 5711 5712 5705 5701 5701 5697 5689 5686 5672 5697 5692 5693 5690 5676 5697 5689 5686 5679 5677 5672 5672 5672
5599 5602 5606 5611 5617 5620 5624 5631 5638 5644 5651 5655 5661 5665 5667 5690 5690 5697 5699 5695 5698 5700 5702 5703 5702 5691 5690 5674 5664 5672 5657 5664 5681 5689 5682 5677 5676 5687 5682 5680 5676 5672 5669 5668 5665
5591 5594 5598 5604 5608 5614 5618 5624 5631 5635 5645 5648 5653 5651 5670 5676 5685 5688 5692 5691 5687 5685 5684 5685 5675 5666 5666 5656 5641 5654 5658 5667 5671 5676 5677 5665 5667 5678 5675 5674 5674 5672 5667 5665 5664
5582 5586 5590 5595 5599 5605 5610 5616 5620 5623 5631 5645 5651 5658 5664 5670 5677 5676 5681 5680 5678 5674 5660 5668 5654 5653 5661 5661 5667 5668 5662 5663 5670 5676 5665 5658 5663 5668 5670 5667 5669 5668 5667 5668 5667
5576 5578 5581 5585 5589 5594 5600 5603 5614 5618 5620 5643 5648 5653 5662 5664 5658 5664 5673 5661 5660 5652 5655 5650 5647 5667 5665 5661 5658 5656 5649 5650 5660 5664 5655 5656 5655 5668 5667 5676 5678 5678 5675 5672 5657
5566 5571 5572 5574 5578 5584 5590 5598 5605 5608 5604 5637 5648 5653 5655 5657 5655 5655 5659 5656 5652 5643 5645 5641 5659 5671 5659 5657 5652 5651 5647 5647 5646 5652 5648 5646 5644 5658 5676 5677 5681 5684 5684 5675 5664
5558 5560 5562 5565 5565 5579 5585 5593 5594 5594 5583 5620 5641 5652 5653 5653 5645 5659 5661 5655 5646 5643 5641 5642 5661 5661 5651 5650 5649 5638 5653 5651 5646 5634 5617 5638 5626 5655 5672 5672 5676 5686 5676 5672 5659
5549 5552 5555 5556 5569 5575 5584 5585 5584 5580 5553 5627 5636 5648 5647 5644 5648 5646 5653 5650 5639 5641 5641 5646 5648 5642 5643 5650 5648 5641 5651 5645 5637 5623 5618 5624 5602 5651 5670 5675 5687 5688 5681 5670 5659
5540 5545 5545 5545 5559 5573 5576 5575 5567 5556 5562 5610 5615 5623 5623 5631 5627 5627 5634 5642 5644 5637 5640 5642 5648 5645 5647 5641 5646 5636 5631 5622 5613 5605 5585 5624 5610 5646 5661 5680 5691 5686 5670 5657 5648
5527 5534 5538 5545 5560 5557 5563 5553 5528 5540 5612 5606 5601 5609 5615 5614 5613 5617 5616 5619 5624 5613 5619 5627 5630 5639 5640 5629 5631 5629 5614 5587 5578 5569 5596 5620 5607 5659 5662 5675 5682 5678 5663 5650 5643
5516 5526 5536 5545 5548 5543 5546 5525 5534 5564 5584 5599 5598 5592 5595 5606 5604 5606 5603 5603 5613 5619 5617 5614 5606 5625 5633 5634 5624 5613 5611 5586 5573 5576 5587 5596 5602 5645 5663 5668 5667 5671 5666 5650 5638
5505 5516 5529 5543 5541 5538 5540 5516 5556 5571 5580 5584 5583 5577 5578 5592 5591 5590 5589 5601 5615 5615 5615 5604 5611 5626 5626 5630 5631 5598 5598 5621 5592 5521 5549 5599 5622 5645 5649 5651 5654 5652 5650 5641 5634
5487 5503 5527 5534 5531 5529 5535 5526 5543 5573 5589 5582 5580 5579 5572 5574 5576 5576 5581 5608 5611 5619 5616 5616 5602 5601 5606 5617 5610 5604 5607 5581 5570 5559 5557 5595 5605 5633 5641 5642 5639 5635 5632 5628 5622
5471 5487 5522 5522 5516 5521 5535 5544 5552 5565 5574 5561 5566 5575 5575 5568 5569 5568 5584 5604 5609 5607 5608 5605 5600 5579 5589 5589 5600 5595 5589 5592 5591 5567 5564 5575 5632 5643 5649 5652 5636 5635 5633 5626 5619
5454 5474 5504 5503 5502 5518 5536 5545 5551 5554 5559 5560 5563 5570 5573 5568 5567 5561 5578 5598 5609 5607 5593 5604 5584 5555 5574 5586 5589 5597 5596 5587 5578 5578 5572 5573 5651 5642 5647 5644 5637 5633 5628 5625 5617
5439 5459 5486 5485 5492 5508 5523 5535 5538 5546 5550 5554 5555 5563 5571 5575 5558 5568 5577 5595 5597 5596 5590 5590 5569 5557 5561 5566 5571 5573 5585 5605 5600 5572 5596 5568 5650 5624 5639 5637 5627 5616 5612 5613 5606
5424 5441 5457 5463 5485 5499 5513 5522 5530 5538 5536 5549 5560 5557 5555 5561 5570 5567 5577 5585 5588 5593 5590 5591 5567 5583 5594 5600 5582 5567 5576 5583 5585 5576 5584 5607 5634 5624 5626 5621 5614 5605 5604 5598 5596
5409 5428 5451 5458 5469 5486 5489 5491 5505 5517 5527 5539 5538 5546 5555 5549 5553 5558 5572 5569 5573 5576 5580 5577 5566 5565 5592 5587 5579 5573 5577 5577 5574 5602 5579 5638 5611 5627 5616 5612 5617 5602 5589 5587 5587
5397 5411 5430 5443 5459 5466 5475 5488 5488 5496 5503 5521 5530 5544 5542 5541 5554 5560 5567 5567 5566 5554 5567 5562 5563 5561 5570 5568 5566 5563 5565 5574 5577 5583 5583 5601 5619 5614 5620 5618 5602 5601 5594 5590 5587
5391 5401 5411 5428 5436 5442 5461 5483 5493 5490 5494 5499 5509 5515 5526 5548 5548 5558 5557 5557 5555 5551 5547 5545 5544 5537 5564 5555 5548 5541 5587 5573 5577 5580 5583 5575 5636 5596 5596 5602 5594 5588 5590 5592 5590